Mitchell, SD

3:08 AM CDT on October 21, 2019 (GMT -0500)
Mitchell Municipal

Weather History for KMHE - May, 2019

Change the Weather History Date:

Saturday, May 4, 2019

  Actual Average Record
Temperature  
Mean Temperature 57 °F 56 °F  
Max Temperature 73 °F 68 °F 99 °F (1926)
Min Temperature 40 °F 43 °F 20 °F (1967)
Degree Days  
Heating Degree Days 8 10  
Month to date heating degree days 56 41  
Since 1 July heating degree days 7744 7041  
Cooling Degree Days 0 1  
Month to date cooling degree days 0 1  
Year to date cooling degree days 0 3  
Growing Degree Days 5 (Base 50)    
Moisture  
Dew Point 41 °F    
Average Humidity 65    
Maximum Humidity 100    
Minimum Humidity 29    
Precipitation  
Precipitation 0.00 in 0.10 in 1.44 in (2012)
Month to date precipitation 0.01 0.37  
Year to date precipitation 7.59 4.17  
Snow  
Snow 0.00 in - T in (1944)
Month to date snowfall 0.0  
Since 1 July snowfall 67.6  
Snow Depth 0.00 in    
Sea Level Pressure  
Sea Level Pressure 29.90 in    
Wind  
Wind Speed 7 mph (South)    
Max Wind Speed 16 mph    
Max Gust Speed 21 mph    
Visibility 7 miles    
Events Fog    
T = Trace of Precipitation, MM = Missing Value Source: NWS Daily Summary

Daily Weather History Graph

Daily Weather History Graph

Search for Another Location

Airport or City:

Astronomy

May. 04, 2019 Rise Set
Actual Time 6:20 AM CDT 8:38 PM CDT
Civil Twilight 5:48 AM CDT 9:10 PM CDT
Nautical Twilight 5:09 AM CDT 9:49 PM CDT
Astronomical Twilight 4:25 AM CDT 10:34 PM CDT
Moon 6:36 AM CDT (5/4) 8:27 PM CDT (5/4)
Length of Visible Light 15h 21m
Length of Day
14h 17m
Waning Crescent, 0% of the Moon is Illuminated
May 4
Waning Crescent
May 4
New
May 11
First Quarter
May 18
Full
May 26
Last Quarter

Hourly Weather History & Observations

Time (CDT) Temp. Windchill Dew Point Humidity Pressure Visibility Wind Dir Wind Speed Gust Speed Precip Events Conditions
12:53 AM 48.0 °F - 43.0 °F 83% 29.98 in 10.0 mi SSW 4.6 mph - N/A   Clear
1:53 AM 48.0 °F - 41.0 °F 77% 29.97 in 10.0 mi SSW 5.8 mph - N/A   Clear
2:53 AM 44.1 °F - 37.9 °F 79% 29.97 in 10.0 mi Calm Calm - N/A   Clear
3:53 AM 43.0 °F - 39.9 °F 89% 29.97 in 10.0 mi Calm Calm - N/A   Clear
4:53 AM 43.0 °F - 39.9 °F 89% 29.96 in 10.0 mi Calm Calm - N/A   Clear
5:46 AM 42.1 °F - 39.0 °F 89% 29.95 in 1.2 mi Calm Calm - N/A   Clear
5:53 AM 41.0 °F - 39.0 °F 93% 29.96 in 0.8 mi Calm Calm - N/A   Clear
6:00 AM 39.9 °F - 37.9 °F 93% 29.95 in 2.5 mi Calm Calm - N/A   Clear
6:08 AM 41.0 °F - 39.0 °F 93% 29.95 in 0.8 mi Calm Calm - N/A   Clear
6:25 AM 39.9 °F - 37.9 °F 93% 29.95 in 0.2 mi Calm Calm - N/A Fog Fog
6:53 AM 39.9 °F - 39.0 °F 97% 29.97 in 0.2 mi Calm Calm - N/A Fog Fog
7:01 AM 42.1 °F - 39.9 °F 92% 29.96 in 0.2 mi Calm Calm - N/A Fog Fog
7:11 AM 43.0 °F - 41.0 °F 93% 29.96 in 1.2 mi Calm Calm - N/A   Partly Cloudy
7:13 AM 43.0 °F 41.3 °F 41.0 °F 93% 29.96 in 3.0 mi South 3.5 mph - N/A   Partly Cloudy
7:53 AM 48.0 °F - 44.1 °F 86% 29.97 in 10.0 mi Calm Calm - N/A   Clear
8:53 AM 55.9 °F - 46.0 °F 69% 29.97 in 10.0 mi SSW 6.9 mph - N/A   Clear
9:53 AM 63.0 °F - 46.0 °F 54% 29.96 in 10.0 mi South 15.0 mph - N/A   Clear
10:53 AM 66.0 °F - 43.0 °F 43% 29.94 in 10.0 mi South 13.8 mph - N/A   Clear
11:53 AM 68.0 °F - 42.1 °F 39% 29.93 in 10.0 mi SSW 12.7 mph - N/A   Clear
12:53 PM 69.1 °F - 39.9 °F 35% 29.90 in 10.0 mi SSW 8.1 mph - N/A   Clear
1:53 PM 70.0 °F - 37.9 °F 31% 29.86 in 10.0 mi SW 3.5 mph - N/A   Clear
2:53 PM 71.1 °F - 37.0 °F 29% 29.84 in 10.0 mi South 8.1 mph - N/A   Clear
3:53 PM 70.0 °F - 39.9 °F 33% 29.82 in 10.0 mi SSE 10.4 mph - N/A   Mostly Cloudy
4:53 PM 70.0 °F - 41.0 °F 35% 29.79 in 10.0 mi SSE 6.9 mph - N/A   Partly Cloudy
5:53 PM 69.1 °F - 41.0 °F 36% 29.79 in 10.0 mi South 10.4 mph - N/A   Clear
6:53 PM 70.0 °F - 41.0 °F 35% 29.78 in 10.0 mi SSE 12.7 mph - N/A   Partly Cloudy
7:53 PM 66.0 °F - 42.1 °F 42% 29.77 in 10.0 mi SSE 9.2 mph - N/A   Partly Cloudy
8:53 PM 61.0 °F - 43.0 °F 52% 29.78 in 10.0 mi SSE 8.1 mph - N/A   Partly Cloudy
9:53 PM 57.9 °F - 46.0 °F 65% 29.79 in 10.0 mi SSE 6.9 mph - N/A   Clear
10:53 PM 55.9 °F - 46.0 °F 69% 29.79 in 10.0 mi South 6.9 mph - N/A   Clear
11:53 PM 54.0 °F - 46.9 °F 77% 29.79 in 10.0 mi SSE 5.8 mph - N/A   Partly Cloudy